Location: Norway
(63.2336°N, 9.9976°E)
Time: 11:22:35
(UTC+01:00)

N. Korean satellite - Visible Passes

Search period start: 21 February 2020 00:00
Search period end: 02 March 2020 00:00
Orbit: 456 x 505 km, 97.2° (Epoch: 20 February)

Date Brightness Start Highest point End Pass type
(mag) Time Alt. Az. Time Alt. Az. Time Alt. Az.
21 Feb 7.9 06:04:18 10° NNE 06:07:55 45° E 06:11:30 10° S visible
21 Feb 9.9 18:25:33 10° SW 18:27:54 16° W 18:30:17 10° NW visible
22 Feb 8.9 05:38:54 10° NNE 05:42:13 29° E 05:45:30 10° SSE visible
23 Feb 9.6 05:13:40 10° NE 05:16:25 19° E 05:19:10 10° SE visible
23 Feb 6.6 06:46:33 10° NNE 06:50:18 83° WNW 06:54:02 10° SSW visible
24 Feb 10.1 04:48:51 10° NE 04:50:33 13° E 04:52:16 10° ESE visible
24 Feb 7.3 06:21:00 10° NNE 06:24:43 62° ESE 06:28:25 10° S visible
24 Feb 10.2 18:43:16 10° WSW 18:44:51 12° W 18:46:27 10° NW visible
25 Feb 8.3 05:55:31 10° NNE 05:59:03 38° E 06:02:34 10° SSE visible
25 Feb 9.9 18:16:19 10° SW 18:18:58 19° W 18:21:40 10° NW visible
26 Feb 9.2 05:30:10 10° NE 05:33:19 25° E 05:36:27 10° SSE visible
27 Feb 9.9 05:05:02 10° NE 05:07:30 17° E 05:09:57 10° SE visible
27 Feb 6.8 06:37:42 10° NNE 06:41:28 85° ESE 06:45:12 10° SSW visible
28 Feb 10.3 04:40:34 10° ENE 04:41:36 11° E 04:42:37 10° E visible
28 Feb 7.6 06:12:10 10° NNE 06:15:51 52° E 06:19:30 10° S visible
28 Feb 10.1 18:33:48 10° WSW 18:35:54 14° W 18:38:00 10° NW visible
29 Feb 8.6 05:46:44 10° NNE 05:50:10 33° E 05:53:33 10° SSE visible
01 Mar 9.5 05:21:26 10° NE 05:24:23 22° E 05:27:19 10° SE visible
